This demonstration page uses our WeatherBlox Daily Observations layout. Learn more.

Left ArrowRight Arrow

Hourly Observations for December 23, 2021

Temp ( °F °C ) Dew Point ( °F °C ) Humidity (%) Winds ( mph kmh ) Pressure ( in mb ) Visibility ( mi km ) Precip ( " mm )
12:56 am 00:56 Clear 41 5 18 -7.8 39 39 WSW 9 15 29.77 1008 10 16 0.00 0.00
1:56 am 01:56 Clear 40 4.4 16 -8.9 38 38 W 5 7 29.76 1008 10 16 0.00 0.00
2:56 am 02:56 Clear 35 1.7 17 -8.3 48 48 WSW 8 13 29.77 1008 10 16 0.00 0.00
3:56 am 03:56 Clear 36 2.2 15 -9.4 42 42 WSW 7 11 29.76 1008 10 16 0.00 0.00
4:56 am 04:56 Clear 34 1.1 14 -10 44 44 WSW 6 9 29.78 1009 10 16 0.00 0.00
5:56 am 05:56 Clear 32 0 17 -8.3 54 54 SW 9 15 29.80 1009 10 16 0.00 0.00
6:56 am 06:56 Clear 31 -0.6 17 -8.3 56 56 WSW 7 11 29.82 1010 10 16 0.00 0.00
7:56 am 07:56 Clear 29 -1.7 18 -7.8 63 63 SW 6 9 29.83 1010 10 16 0.00 0.00
8:56 am 08:56 Sunny 32 0 20 -6.7 61 61 WSW 6 9 29.82 1010 10 16 0.00 0.00
9:56 am 09:56 Sunny 39 3.9 21 -6.1 48 48 SSW 6 9 29.82 1010 10 16 0.00 0.00
10:56 am 10:56 Sunny 47 8.3 23 -5 39 39 SSW 7 11 29.81 1010 10 16 0.00 0.00
11:56 am 11:56 Sunny 53 11.7 23 -5 31 31 S 6 9 29.77 1008 10 16 0.00 0.00
12:56 pm 12:56 Sunny 56 13.3 22 -5.6 27 27 SSW 6 9 29.74 1007 10 16 0.00 0.00
1:56 pm 13:56 Sunny 59 15 21 -6.1 23 23 S 3 6 29.71 1006 10 16 0.00 0.00
2:56 pm 14:56 Sunny 62 16.7 21 -6.1 21 21 SSW 9 15 29.69 1006 10 16 0.00 0.00
3:56 pm 15:56 Sunny 58 14.4 22 -5.6 25 25 SSW 12 19 29.69 1005 10 16 0.00 0.00
4:56 pm 16:56 Sunny 51 10.6 21 -6.1 31 31 SSW 8 13 29.69 1006 9 14 0.00 0.00
5:56 pm 17:56 Clear 47 8.3 20 -6.7 34 34 S 7 11 29.69 1006 10 16 0.00 0.00
6:56 pm 18:56 Clear 42 5.6 20 -6.7 41 41 SSW 9 15 29.69 1006 10 16 0.00 0.00
7:56 pm 19:56 Clear 42 5.6 20 -6.7 41 41 S 13 20 29.65 1004 10 16 0.00 0.00
8:56 pm 20:56 Clear 38 3.3 19 -7.2 46 46 SSW 8 13 29.63 1004 10 16 0.00 0.00
9:56 pm 21:56 Clear 34 1.1 19 -7.2 54 54 S 10 17 29.59 1002 10 16 0.00 0.00
10:56 pm 22:56 Clear 40 4.4 22 -5.6 49 49 S 9 15 29.54 1000 10 16 0.00 0.00
11:56 pm 23:56 Clear 43 6.1 23 -5 45 45 SSW 14 22 29.50 999 10 16 0.00 0.00

Powered by AerisWeather